Stündliche Wetter Barpeta

Heute, 29 Oktober, Donnerstag

Zeit Temperatur Niederschläge Wind Luftdruck Luftfeuchtigkeit
00:00 +25°C° 0 mm 1 m/S 756 mmHg 76%
01:00 +24°C° 0 mm 1 m/S 756 mmHg 75%
02:00 +24°C° 0 mm 1 m/S 756 mmHg 73%
03:00 +24°C° 0 mm 1 m/S 755 mmHg 71%
04:00 +23°C° 0 mm 1 m/S 756 mmHg 70%
05:00 +23°C° 0 mm 2 m/S 756 mmHg 68%
06:00 +23°C° 0 mm 2 m/S 756 mmHg 66%
07:00 +24°C° 0 mm 2 m/S 756 mmHg 67%
08:00 +25°C° 0 mm 3 m/S 757 mmHg 69%
09:00 +27°C° 0 mm 3 m/S 757 mmHg 71%
10:00 +28°C° 0 mm 3 m/S 756 mmHg 67%
11:00 +30°C° 0 mm 3 m/S 756 mmHg 64%
12:00 +33°C° 0 mm 3 m/S 755 mmHg 61%
13:00 +33°C° 0 mm 3 m/S 754 mmHg 60%
14:00 +33°C° 0 mm 3 m/S 754 mmHg 60%
15:00 +33°C° 0 mm 3 m/S 753 mmHg 59%
16:00 +31°C° 0 mm 2 m/S 753 mmHg 65%
17:00 +29°C° 0 mm 2 m/S 754 mmHg 70%
18:00 +28°C° 0 mm 1 m/S 754 mmHg 76%
19:00 +27°C° 0 mm 1 m/S 755 mmHg 77%
20:00 +26°C° 0 mm 1 m/S 755 mmHg 79%
21:00 +26°C° 0 mm 1 m/S 756 mmHg 80%
22:00 +25°C° 0 mm 1 m/S 756 mmHg 79%
23:00 +25°C° 0 mm 1 m/S 756 mmHg 79%

Morgen, 30 Oktober, Freitag

Zeit Temperatur Niederschläge Wind Luftdruck Luftfeuchtigkeit
00:00 +24°C° 0 mm 1 m/S 756 mmHg 78%
01:00 +24°C° 0 mm 1 m/S 756 mmHg 77%
02:00 +23°C° 0 mm 2 m/S 755 mmHg 76%
03:00 +23°C° 0 mm 2 m/S 755 mmHg 74%
04:00 +21°C° 0 mm 2 m/S 755 mmHg 74%
05:00 +21°C° 0 mm 2 m/S 755 mmHg 75%
06:00 +21°C° 0 mm 3 m/S 756 mmHg 75%
07:00 +22°C° 0 mm 3 m/S 756 mmHg 75%
08:00 +25°C° 0 mm 4 m/S 756 mmHg 75%
09:00 +27°C° 0 mm 4 m/S 756 mmHg 74%
10:00 +28°C° 0 mm 4 m/S 756 mmHg 70%
11:00 +30°C° 0 mm 4 m/S 755 mmHg 65%
12:00 +33°C° 0 mm 4 m/S 755 mmHg 61%
13:00 +33°C° 0 mm 4 m/S 754 mmHg 61%
14:00 +33°C° 0 mm 4 m/S 754 mmHg 61%
15:00 +33°C° 0 mm 3 m/S 753 mmHg 61%
16:00 +31°C° 0 mm 3 m/S 753 mmHg 67%
17:00 +29°C° 0 mm 3 m/S 754 mmHg 73%
18:00 +27°C° 0 mm 2 m/S 754 mmHg 80%
19:00 +26°C° 0 mm 2 m/S 755 mmHg 80%
20:00 +26°C° 0 mm 2 m/S 755 mmHg 81%
21:00 +25°C° 0 mm 2 m/S 756 mmHg 82%
22:00 +25°C° 0 mm 2 m/S 756 mmHg 80%
23:00 +24°C° 0 mm 2 m/S 756 mmHg 79%

übermorgen, 31 Oktober, Samstag

Zeit Temperatur Niederschläge Wind Luftdruck Luftfeuchtigkeit
00:00 +24°C° 0 mm 2 m/S 755 mmHg 78%
01:00 +23°C° 0 mm 2 m/S 755 mmHg 75%
02:00 +23°C° 0 mm 2 m/S 755 mmHg 72%
03:00 +23°C° 0 mm 2 m/S 755 mmHg 69%
04:00 +21°C° 0 mm 2 m/S 755 mmHg 71%
05:00 +21°C° 0 mm 3 m/S 755 mmHg 73%
06:00 +21°C° 0 mm 3 m/S 756 mmHg 75%
07:00 +22°C° 0 mm 3 m/S 756 mmHg 73%
08:00 +25°C° 0 mm 3 m/S 756 mmHg 70%
09:00 +26°C° 0 mm 3 m/S 757 mmHg 68%
10:00 +28°C° 0 mm 3 m/S 756 mmHg 64%
11:00 +30°C° 0 mm 3 m/S 756 mmHg 59%
12:00 +31°C° 0 mm 3 m/S 755 mmHg 55%
13:00 +32°C° 0 mm 2 m/S 755 mmHg 54%
14:00 +32°C° 0 mm 2 m/S 754 mmHg 54%
15:00 +32°C° 0 mm 2 m/S 754 mmHg 53%
16:00 +31°C° 0 mm 2 m/S 754 mmHg 59%
17:00 +29°C° 0 mm 2 m/S 755 mmHg 65%
18:00 +27°C° 0 mm 2 m/S 755 mmHg 71%
19:00 +27°C° 0 mm 2 m/S 756 mmHg 72%
20:00 +26°C° 0 mm 2 m/S 757 mmHg 73%
21:00 +25°C° 0 mm 2 m/S 757 mmHg 75%
22:00 +25°C° 0 mm 1 m/S 757 mmHg 75%
23:00 +24°C° 0 mm 1 m/S 757 mmHg 75%

1 November, Sonntag

Zeit Temperatur Niederschläge Wind Luftdruck Luftfeuchtigkeit
00:00 +24°C° 0 mm 1 m/S 757 mmHg 75%
01:00 +24°C° 0 mm 1 m/S 756 mmHg 75%
02:00 +23°C° 0 mm 2 m/S 756 mmHg 76%
03:00 +23°C° 0 mm 2 m/S 756 mmHg 76%
04:00 +23°C° 0 mm 2 m/S 756 mmHg 76%
05:00 +21°C° 0 mm 2 m/S 756 mmHg 76%
06:00 +21°C° 0 mm 2 m/S 756 mmHg 75%
07:00 +24°C° 0 mm 2 m/S 757 mmHg 72%
08:00 +25°C° 0 mm 3 m/S 757 mmHg 68%
09:00 +27°C° 0 mm 3 m/S 757 mmHg 65%
10:00 +28°C° 0 mm 3 m/S 757 mmHg 63%
11:00 +29°C° 0 mm 2 m/S 756 mmHg 62%
12:00 +31°C° 0 mm 2 m/S 756 mmHg 61%
13:00 +31°C° 0 mm 2 m/S 755 mmHg 60%
14:00 +31°C° 0 mm 1 m/S 754 mmHg 59%
15:00 +30°C° 0 mm 0 m/S 754 mmHg 59%
16:00 +29°C° 0 mm 0 m/S 754 mmHg 63%
17:00 +27°C° 0 mm 0 m/S 755 mmHg 68%
18:00 +28°C° 0 mm 1 m/S 755 mmHg 73%
19:00 +27°C° 0 mm 1 m/S 756 mmHg 75%
20:00 +27°C° 0 mm 1 m/S 756 mmHg 77%
21:00 +26°C° 0 mm 1 m/S 757 mmHg 79%
22:00 +26°C° 0 mm 1 m/S 757 mmHg 80%
23:00 +25°C° 0 mm 1 m/S 757 mmHg 80%

2 November, Montag

Zeit Temperatur Niederschläge Wind Luftdruck Luftfeuchtigkeit
00:00 +23°C° 0 mm 0 m/S 757 mmHg 81%
01:00 +25°C° 0 mm 1 m/S 757 mmHg 81%
02:00 +24°C° 0 mm 1 m/S 757 mmHg 81%
03:00 +24°C° 0 mm 1 m/S 756 mmHg 81%
04:00 +24°C° 0 mm 1 m/S 756 mmHg 81%
05:00 +24°C° 0 mm 1 m/S 756 mmHg 81%
06:00 +23°C° 0 mm 1 m/S 756 mmHg 81%
07:00 +25°C° 0 mm 2 m/S 757 mmHg 79%
08:00 +26°C° 0 mm 2 m/S 757 mmHg 77%
09:00 +27°C° 0 mm 2 m/S 758 mmHg 75%
10:00 +28°C° 0 mm 2 m/S 757 mmHg 72%
11:00 +29°C° 0 mm 2 m/S 757 mmHg 69%
12:00 +31°C° 0 mm 2 m/S 756 mmHg 66%
13:00 +31°C° 0 mm 1 m/S 756 mmHg 63%
14:00 +31°C° 0 mm 1 m/S 755 mmHg 60%
15:00 +30°C° 0 mm 0 m/S 755 mmHg 57%
16:00 +31°C° 0 mm 1 m/S 755 mmHg 63%
17:00 +29°C° 0 mm 1 m/S 756 mmHg 68%
18:00 +28°C° 0 mm 1 m/S 756 mmHg 74%
19:00 +27°C° 0.1 mm 1 m/S 756 mmHg 76%
20:00 +27°C° 0.1 mm 1 m/S 757 mmHg 78%
21:00 +26°C° 0.1 mm 1 m/S 757 mmHg 81%
22:00 +24°C° 0 mm 0 m/S 757 mmHg 81%
23:00 +24°C° 0 mm 0 m/S 757 mmHg 82%

3 November, Dienstag

Zeit Temperatur Niederschläge Wind Luftdruck Luftfeuchtigkeit
00:00 +23°C° 0 mm 0 m/S 757 mmHg 83%
01:00 +23°C° 0 mm 0 m/S 757 mmHg 83%
02:00 +23°C° 0 mm 0 m/S 756 mmHg 84%
03:00 +22°C° 0 mm 0 m/S 756 mmHg 84%
04:00 +22°C° 0 mm 0 m/S 756 mmHg 84%
05:00 +24°C° 0 mm 1 m/S 756 mmHg 84%
06:00 +23°C° 0 mm 1 m/S 757 mmHg 84%
07:00 +25°C° 0 mm 1 m/S 757 mmHg 80%
08:00 +26°C° 0 mm 1 m/S 757 mmHg 76%
09:00 +27°C° 0 mm 1 m/S 758 mmHg 72%
10:00 +29°C° 0 mm 1 m/S 757 mmHg 68%
11:00 +30°C° 0 mm 1 m/S 757 mmHg 64%
12:00 +31°C° 0 mm 1 m/S 756 mmHg 60%
13:00 +31°C° 0 mm 2 m/S 756 mmHg 59%
14:00 +31°C° 0 mm 2 m/S 755 mmHg 57%
15:00 +33°C° 0 mm 3 m/S 754 mmHg 56%
16:00 +30°C° 0 mm 3 m/S 755 mmHg 61%
17:00 +29°C° 0 mm 2 m/S 755 mmHg 66%
18:00 +28°C° 0 mm 2 m/S 755 mmHg 71%
19:00 +27°C° 0 mm 2 m/S 755 mmHg 73%
20:00 +27°C° 0 mm 1 m/S 756 mmHg 74%
21:00 +26°C° 0 mm 1 m/S 756 mmHg 76%
22:00 +26°C° 0 mm 1 m/S 756 mmHg 78%
23:00 +24°C° 0 mm 0 m/S 756 mmHg 79%
Mehr zeigen